N9XTN-3 Weather Reports


time (UTC)temp
C
wind
direction
speed
KPH
gust
KPH
rain 1hr
cm
rain 24hr
cm
rain mn
cm
humidity
%
barometer
mb
20260504192515 25 0 16.1 30.6 0.00 0.00 0.00 33 1002.2
20260504192016 25 0 14.5 24.1 0.00 0.00 0.00 33 1002.1
20260504191536 25 0 19.3 33.8 0.00 0.00 0.00 33 1002.2
20260504191016 25 0 20.9 37.0 0.00 0.00 0.00 33 1002.1
20260504190516 26 0 20.9 33.8 0.00 0.00 0.00 33 1002.1
20260504190015 26 0 22.5 37.0 0.00 0.00 0.00 32 1002.1
20260504185516 26 0 22.5 40.2 0.00 0.00 0.00 32 1002.1
20260504185036 26 0 19.3 32.2 0.00 0.00 0.00 33 1002.0
20260504184516 26 0 22.5 33.8 0.00 0.00 0.00 33 1002.0
20260504184016 26 0 19.3 33.8 0.00 0.00 0.00 33 1001.9
20260504183516 26 338 19.3 35.4 0.00 0.00 0.00 30 1001.9
20260504183016 26 338 22.5 37.0 0.00 0.00 0.00 32 1001.9
20260504182516 26 0 22.5 38.6 0.00 0.00 0.00 31 1001.9
20260504182016 26 0 17.7 30.6 0.00 0.00 0.00 31 1001.9
20260504181516 26 0 20.9 35.4 0.00 0.00 0.00 32 1002.0
20260504181016 26 0 19.3 35.4 0.00 0.00 0.00 31 1001.8
20260504180515 26 0 25.7 38.6 0.00 0.00 0.00 30 1001.8
20260504180015 26 293 14.5 25.7 0.00 0.00 0.00 31 1001.8
20260504175516 26 293 14.5 30.6 0.00 0.00 0.00 30 1001.8
20260504175015 26 293 14.5 27.4 0.00 0.00 0.00 29 1001.9
20260504174515 26 0 19.3 37.0 0.00 0.00 0.00 30 1001.9
20260504174015 26 293 12.9 27.4 0.00 0.00 0.00 29 1001.8
20260504173515 26 270 14.5 30.6 0.00 0.00 0.00 31 1001.9
20260504173015 26 293 14.5 22.5 0.00 0.00 0.00 31 1001.8
20260504172516 26 293 12.9 24.1 0.00 0.00 0.00 32 1001.8
20260504172016 26 293 12.9 24.1 0.00 0.00 0.00 31 1001.9
20260504171516 26 293 12.9 24.1 0.00 0.00 0.00 32 1001.9
20260504171036 26 270 12.9 22.5 0.00 0.00 0.00 32 1002.0
20260504170516 25 293 16.1 24.1 0.00 0.00 0.00 32 1002.0
20260504151016 21 225 4.8 9.7 0.00 0.00 0.00 44 1002.1
20260504150516 21 248 4.8 12.9 0.00 0.00 0.00 40 1002.1
20260504141016 17 270 3.2 8.0 0.00 0.00 0.00 51 1002.4
20260504140536 17 270 4.8 8.0 0.00 0.00 0.00 53 1002.5
20260504130516 12 293 6.4 11.3 0.00 0.00 0.00 73 1003.0
20260504110516 7 0.0 0.0 0.00 0.00 0.00 87 1002.1
20260504100516 7 0.0 0.0 0.00 0.00 0.00 86 1002.3
20260504081516 10 0.0 3.2 0.00 0.00 0.00 75 1003.3
20260504081016 10 203 1.6 4.8 0.00 0.00 0.00 75 1003.2
20260504080516 10 203 3.2 4.8 0.00 0.00 0.00 76 1003.3
20260504050516 12 0.0 0.0 0.00 0.00 0.00 74 1005.9
20260504050016 12 0.0 0.0 0.00 0.00 0.00 73 1006.0
20260504045517 12 0.0 0.0 0.00 0.00 0.00 73 1006.1
20260504045018 12 0.0 0.0 0.00 0.00 0.00 72 1006.2
20260504044517 12 0.0 0.0 0.00 0.00 0.00 71 1006.2
20260504044019 13 0.0 0.0 0.00 0.00 0.00 70 1006.2
20260504043516 13 0.0 3.2 0.00 0.00 0.00 69 1006.2
20260504043017 13 0.0 1.6 0.00 0.00 0.00 68 1006.3
20260504042518 13 203 1.6 4.8 0.00 0.00 0.00 68 1006.3
20260504042018 13 203 1.6 3.2 0.00 0.00 0.00 65 1006.3
20260504041538 14 0.0 3.2 0.00 0.00 0.00 63 1006.4
20260504041016 14 0.0 0.0 0.00 0.00 0.00 58 1006.4
20260504040518 15 0.0 0.0 0.00 0.00 0.00 58 1006.4
20260504040016 15 0.0 0.0 0.00 0.00 0.00 57 1006.6
20260504035536 15 0.0 0.0 0.00 0.00 0.00 57 1006.6
20260504035016 15 0.0 0.0 0.00 0.00 0.00 56 1006.5
20260504034516 15 0.0 3.2 0.00 0.00 0.00 57 1006.6
20260504034016 15 0.0 1.6 0.00 0.00 0.00 57 1006.8
20260504033516 15 203 1.6 4.8 0.00 0.00 0.00 57 1006.8
20260504033016 15 248 3.2 4.8 0.00 0.00 0.00 55 1006.8
20260504032516 15 0.0 3.2 0.00 0.00 0.00 57 1006.9
20260504032016 15 0.0 1.6 0.00 0.00 0.00 55 1006.8
20260504031516 15 248 1.6 3.2 0.00 0.00 0.00 57 1006.9
20260504031016 15 0.0 3.2 0.00 0.00 0.00 56 1006.9
20260504030536 15 248 1.6 3.2 0.00 0.00 0.00 57 1006.9
20260504030016 16 0.0 4.8 0.00 0.00 0.00 58 1006.9
20260504025516 16 0.0 3.2 0.00 0.00 0.00 56 1007.0
20260504025016 16 0.0 1.6 0.00 0.00 0.00 49 1006.9
20260504024516 16 0.0 1.6 0.00 0.00 0.00 50 1006.9
20260504024056 16 315 1.6 3.2 0.00 0.00 0.00 50 1007.0
20260504023516 16 0.0 3.2 0.00 0.00 0.00 50 1007.1
20260504023016 16 0.0 0.0 0.00 0.00 0.00 51 1007.0
20260504022516 17 0.0 0.0 0.00 0.00 0.00 51 1007.0
20260504022016 17 0.0 0.0 0.00 0.00 0.00 47 1007.0
20260504021516 17 0.0 3.2 0.00 0.00 0.00 47 1007.0
20260504021016 17 315 1.6 3.2 0.00 0.00 0.00 48 1007.1
20260504020516 17 0.0 4.8 0.00 0.00 0.00 46 1007.1
20260504020016 17 0.0 0.0 0.00 0.00 0.00 45 1007.1
20260504015516 18 0.0 1.6 0.00 0.00 0.00 44 1007.3
20260504015056 18 0.0 1.6 0.00 0.00 0.00 42 1007.2
20260504014516 18 0.0 1.6 0.00 0.00 0.00 41 1007.3
20260504014017 18 0.0 0.0 0.00 0.00 0.00 39 1007.3
20260504013516 19 0.0 0.0 0.00 0.00 0.00 39 1007.3
20260504013016 19 0.0 1.6 0.00 0.00 0.00 40 1007.3
20260504012536 20 315 1.6 1.6 0.00 0.00 0.00 37 1007.3
20260504012036 20 0.0 0.0 0.00 0.00 0.00 37 1007.3
20260504011516 21 0.0 0.0 0.00 0.00 0.00 36 1007.3
20260504011016 21 0.0 0.0 0.00 0.00 0.00 35 1007.4
20260504010516 21 0.0 0.0 0.00 0.00 0.00 34 1007.4
20260504010016 22 0.0 0.0 0.00 0.00 0.00 35 1007.6
20260504005516 22 0.0 0.0 0.00 0.00 0.00 37 1007.6
20260504005016 23 0.0 0.0 0.00 0.00 0.00 34 1007.6
20260504004516 23 0.0 1.6 0.00 0.00 0.00 31 1007.7
20260504004016 23 0.0 3.2 0.00 0.00 0.00 30 1007.7
20260504003516 23 315 1.6 6.4 0.00 0.00 0.00 28 1007.7
20260504003016 24 293 1.6 4.8 0.00 0.00 0.00 28 1007.8
20260504002516 24 293 3.2 6.4 0.00 0.00 0.00 28 1007.9
20260504002016 24 338 3.2 6.4 0.00 0.00 0.00 28 1008.0
20260504001516 24 293 3.2 8.0 0.00 0.00 0.00 28 1008.0
20260504001016 24 293 3.2 6.4 0.00 0.00 0.00 28 1008.1
20260504000516 24 293 3.2 8.0 0.00 0.00 0.00 28 1008.2
20260504000016 24 293 4.8 6.4 0.00 0.00 0.00 29 1008.2
20260503235536 24 293 6.4 9.7 0.00 0.00 0.00 28 1008.3
20260503235016 24 270 6.4 11.3 0.00 0.00 0.00 28 1008.3
20260503234516 24 270 3.2 8.0 0.00 0.00 0.00 28 1008.3
20260503234036 24 293 4.8 9.7 0.00 0.00 0.00 27 1008.3
20260503233516 24 293 3.2 8.0 0.00 0.00 0.00 27 1008.3
20260503233016 24 270 4.8 8.0 0.00 0.00 0.00 27 1008.3
20260503232516 24 338 6.4 16.1 0.00 0.00 0.00 27 1008.3
20260503232016 24 270 6.4 12.9 0.00 0.00 0.00 27 1008.3
20260503231516 24 270 3.2 11.3 0.00 0.00 0.00 29 1008.4
20260503231016 24 225 4.8 11.3 0.00 0.00 0.00 27 1008.3
20260503230516 25 315 3.2 4.8 0.00 0.00 0.00 31 1008.5
20260503230016 24 270 1.6 4.8 0.00 0.00 0.00 27 1008.4
20260503225516 24 270 3.2 9.7 0.00 0.00 0.00 28 1008.4
20260503225016 24 270 6.4 12.9 0.00 0.00 0.00 28 1008.6
20260503224516 24 293 8.0 12.9 0.00 0.00 0.00 27 1008.6
20260503224016 24 270 6.4 14.5 0.00 0.00 0.00 28 1008.6
20260503223516 24 270 6.4 12.9 0.00 0.00 0.00 28 1008.6
20260503223016 24 270 6.4 12.9 0.00 0.00 0.00 29 1008.6
20260503222516 24 248 8.0 16.1 0.00 0.00 0.00 29 1008.6
20260503222016 24 293 6.4 14.5 0.00 0.00 0.00 31 1008.7
20260503221536 25 225 4.8 14.5 0.00 0.00 0.00 32 1008.9
20260503221016 24 270 8.0 16.1 0.00 0.00 0.00 29 1008.9
20260503220516 24 270 3.2 11.3 0.00 0.00 0.00 34 1009.0
20260503220016 24 293 6.4 12.9 0.00 0.00 0.00 30 1008.9
20260503215516 24 270 6.4 12.9 0.00 0.00 0.00 31 1009.0
20260503215016 24 203 4.8 12.9 0.00 0.00 0.00 36 1008.9
20260503214516 24 248 8.0 14.5 0.00 0.00 0.00 34 1009.0
20260503214016 24 248 8.0 14.5 0.00 0.00 0.00 33 1009.0
20260503213516 24 293 8.0 14.5 0.00 0.00 0.00 31 1009.2
20260503213016 24 270 8.0 16.1 0.00 0.00 0.00 30 1009.3
20260503212536 24 203 4.8 12.9 0.00 0.00 0.00 31 1009.4
20260503212016 24 225 4.8 8.0 0.00 0.00 0.00 35 1009.4
20260503211516 23 180 3.2 6.4 0.00 0.00 0.00 31 1009.5
20260503211036 23 270 3.2 8.0 0.00 0.00 0.00 31 1009.5
20260503210516 23 248 4.8 12.9 0.00 0.00 0.00 30 1009.5
20260503210016 24 248 8.0 20.9 0.00 0.00 0.00 32 1009.8
20260503205516 24 270 4.8 17.7 0.00 0.00 0.00 35 1009.9
20260503205016 23 293 6.4 12.9 0.00 0.00 0.00 34 1010.0
20260503204516 23 270 6.4 12.9 0.00 0.00 0.00 33 1010.0
20260503204016 23 0 6.4 16.1 0.00 0.00 0.00 31 1010.0
20260503203516 23 293 6.4 12.9 0.00 0.00 0.00 30 1010.1
20260503203016 23 270 6.4 14.5 0.00 0.00 0.00 32 1010.2
20260503202536 23 315 8.0 17.7 0.00 0.00 0.00 31 1010.2
20260503202016 23 0 12.9 24.1 0.00 0.00 0.00 30 1010.3
20260503201516 23 248 4.8 11.3 0.00 0.00 0.00 32 1010.2
20260503201016 23 270 4.8 9.7 0.00 0.00 0.00 34 1010.3
20260503200516 23 68 1.6 8.0 0.00 0.00 0.00 32 1010.3
20260503200036 23 293 8.0 16.1 0.00 0.00 0.00 30 1010.5
20260503195516 23 0 11.3 29.0 0.00 0.00 0.00 30 1010.6
20260503195016 23 0 6.4 16.1 0.00 0.00 0.00 31 1010.7
20260503194536 22 0 17.7 30.6 0.00 0.00 0.00 31 1010.7
20260503194016 22 0 12.9 30.6 0.00 0.00 0.00 31 1010.7
20260503193516 22 0 9.7 17.7 0.00 0.00 0.00 31 1010.6
20260503193016 22 338 8.0 17.7 0.00 0.00 0.00 33 1010.8